COSMOS 1816

Satellite information

Favourite Embed

Satellite Type and Status

PAYLOADIN ORBIT

Key statistics

Satellite COSMOS 1816 at a glance.

Uptime

14038

Days in orbit

Revolutions

≈ 13.7

Per day

Orbit

LEO

Low Earth Orbit

Inclination

82.9

Latest

Satellite identification and parameters

Extended collection of information and parameters for COSMOS 1816.

Object identification

Identified? True

Debris? False

Object name: COSMOS 1816

International designator: 1987-009A

Object number (NORAD): 17359

Object ID (CCSDS): 17359

Country: COMMONWEALTH OF INDEPENDENT STATES (CIS)

Current information (Y/N): Y

RCS size: LARGE

Orbital parameters

Period: 104.757 minutes

Inclination: 82.9244 deg

SMA: 7361.21 km

Apoapsis: 1008.037 km

Periapsis: 958.112 km

RAAN: 281.671 deg

Eccentricy: 0.0033911

Argument of periapsis: 95.2021 deg

Mean anomaly: 19.7003 deg

Mean motion: 13.74608398 rev/day

Mean motion (dot): 0.00000014 rev/day2

B* drag term: -0.0000011049 1/REarth

Two-line elements (TLE)

Creation date: July 5, 2025, 5:45 p.m.

Reference frame: TEME

Reference center: EARTH

Epoch: July 5, 2025, 3:14 p.m. UTC

TLE line 0: 0 COSMOS 1816

TLE line 1: 1 17359U 87009A 25186.63507463 .00000014 00000-0 -11049-5 0 9991

TLE line 2: 2 17359 82.9244 281.6710 0033911 95.2021 19.7003 13.74608398927543

Live tracking on map

Real-time ground track for satellite COSMOS 1816.

In-orbit conjunctions

A list of the most updated potential collisions computed for object COSMOS 1816.

Target Orbit TCA Probability of collision Miss distance Type
M-4S R/B LEO 2025-06-18 21:47:51 0.0019282 445.0 (m) ROCKET BODY
CZ-6A DEB SSO 2025-04-26 01:27:14 0.0001406051 886.0 (m) DEBRIS
FENGYUN 1C DEB SSO 2024-11-17 18:15:04 0.0003479315 209.0 (m) DEBRIS
COSMOS 1275 DEB LEO 2024-06-19 13:50:18 0.001753284 271.0 (m) DEBRIS

Associated space launch

Civilian navigation satellite equivalent to the purely military Parus

COSMOS 1816 was lifted into orbit during the mission ‘Kosmos-3M | Tsikada 15’, on board a Kosmos-3M space rocket.

The launch took place on Jan. 29, 1987, 6:14 a.m. from 132/2.

For more information about the launch, click the button.

Launch to space Kosmos-3M | Tsikada 15
Kosmos-3M | Tsikada 15

Agency: N/A

Status: Launch Successful

Launch date: Jan. 29, 1987, 6:14 a.m. UTC

Rocket: Kosmos-3M

Launch pad: 132/2

Location: Plesetsk Cosmodrome, Russian Federation

...

Latest news about this satellite

There are no fresh news available about this satellite. Check back as we update our databases every day.


Newsletter sign-up

Weekly statistics, charts and insights to help you stay on top of the space industry.